Date String (YYYY-MM-DD hh:mm:ss) UTC,Instrument flags,absolute air pressure of the measurement (hPa),sample flow rate (lpm),inlet stack bypass flow (lpm),air temperature of the measurement (°C),ambient temperature measured by the external sensor (°C),aerosol sample conditioner tube jacket temperature (°C),OPC LED temperature (°C),internal box temperature (°C),relative humidity of the measurement (%),span deviation,mass concentration of particles derived from Lorenz-Mie calculation of OPC scattering (μg/m³),mass concentration of particles derived from Lorenz-Mie calculation of OPC scattering (μg/m³),mass concentration of particles derived from Lorenz-Mie calculation of OPC scattering (μg/m³)
DateTimeUTC,F1_M11,P_M11,Q1_M11,Q2_M11,T1_M11,T2_M11,T3_M11,T4_M11,T5_M11,U1_M11,ZSPAN_M11,X0_M11,X2_M11,X1_M11
2024-05-26 09:00:00,SystemResetWarning,0822.4,5.01,000.00,027.7,026.8,000.0,036.0,029.4,015.3,0000.0,0000.39,0000.24,0000.12
2024-05-26 09:01:00,SystemResetWarning,0822.4,5.01,000.00,027.7,026.8,000.0,036.0,029.4,015.4,0000.0,0000.37,0000.23,0000.11
2024-05-26 09:02:00,SystemResetWarning,0822.4,5.00,000.00,027.7,026.8,000.0,036.0,029.4,015.3,0000.0,0000.31,0000.19,0000.11
2024-05-26 09:03:00,SystemResetWarning,0822.4,4.99,000.00,027.7,026.8,000.0,036.0,029.4,015.6,0000.0,0000.26,0000.15,0000.10
2024-05-26 09:04:00,SystemResetWarning,0822.4,5.00,000.00,027.7,026.8,000.0,036.0,029.4,015.6,0000.0,0000.20,0000.12,0000.08
2024-05-26 09:05:00,SystemResetWarning,0822.4,5.00,000.00,027.7,026.8,000.0,036.0,029.4,014.8,0000.0,0000.32,0000.11,0000.07
2024-05-26 09:06:00,SystemResetWarning,0822.4,5.00,000.00,027.7,026.8,000.0,036.0,029.4,014.8,0000.0,0000.75,0000.11,0000.07
2024-05-26 09:07:00,SystemResetWarning,0822.4,4.99,000.00,027.7,026.8,000.0,036.0,029.4,014.9,0000.0,0000.77,0000.11,0000.06
2024-05-26 09:08:00,SystemResetWarning,0822.4,4.99,000.00,027.7,026.8,000.0,036.0,029.4,014.9,0000.0,0000.81,0000.13,0000.06
2024-05-26 09:09:00,SystemResetWarning,0822.4,5.00,000.00,027.6,026.8,000.0,036.0,029.4,015.0,0000.0,0000.82,0000.13,0000.05
2024-05-26 09:10:00,SystemResetWarning,0822.4,5.01,000.00,027.6,026.8,000.0,036.0,029.4,015.0,0000.0,0000.81,0000.13,0000.04
2024-05-26 09:11:00,SystemResetWarning,0822.4,5.00,000.00,027.6,026.7,000.0,036.0,029.4,014.9,0000.0,0000.79,0000.12,0000.04
2024-05-26 09:12:00,SystemResetWarning,0822.4,5.01,000.00,027.6,026.7,000.0,036.0,029.3,015.0,0000.0,0000.78,0000.11,0000.04
2024-05-26 09:13:00,SystemResetWarning,0822.4,5.00,000.00,027.6,026.7,000.0,036.0,029.4,015.0,0000.0,0000.78,0000.11,0000.03
2024-05-26 09:14:00,SystemResetWarning,0822.4,5.00,000.00,027.6,026.7,000.0,036.0,029.4,014.7,0000.0,0000.83,0000.12,0000.03
2024-05-26 09:15:00,SystemResetWarning,0822.4,4.99,000.00,027.6,026.7,000.0,036.0,029.4,014.5,0000.0,0000.84,0000.13,0000.03
2024-05-26 09:16:00,SystemResetWarning,0822.4,4.99,000.00,027.6,026.7,000.0,036.0,029.4,014.6,0000.0,0000.83,0000.12,0000.03
2024-05-26 09:17:00,SystemResetWarning,0822.4,5.00,000.00,027.6,026.7,000.0,035.9,029.4,014.6,0000.0,0000.28,0000.11,0000.04
2024-05-26 09:18:00,SystemResetWarning,0822.4,5.02,000.00,027.6,026.7,000.0,035.9,029.3,014.5,0000.0,0000.28,0000.13,0000.04
2024-05-26 09:19:00,SystemResetWarning,0822.6,4.99,000.00,027.6,026.7,000.0,035.9,029.3,014.5,0000.0,0000.24,0000.11,0000.04
2024-05-26 09:20:00,SystemResetWarning,0822.5,4.99,000.00,027.6,026.7,000.0,035.9,029.3,014.6,0000.0,0000.22,0000.10,0000.05
2024-05-26 09:21:00,SystemResetWarning,0822.6,4.99,000.00,027.6,026.7,000.0,035.9,029.3,014.7,0000.0,0000.23,0000.10,0000.05
2024-05-26 09:22:00,SystemResetWarning,0822.5,5.00,000.00,027.6,026.7,000.0,035.9,029.3,014.8,0000.0,0000.22,0000.09,0000.05
2024-05-26 09:23:00,SystemResetWarning,0822.4,5.00,000.00,027.6,026.7,000.0,035.9,029.3,014.5,0000.0,0000.29,0000.10,0000.04
2024-05-26 09:24:00,SystemResetWarning,0822.4,5.01,000.00,027.6,026.7,000.0,035.9,029.3,014.3,0000.0,0000.92,0000.13,0000.05
2024-05-26 09:25:00,SystemResetWarning,0822.4,5.00,000.00,027.6,026.7,000.0,035.9,029.3,014.3,0000.0,0000.99,0000.13,0000.05
2024-05-26 09:26:00,SystemResetWarning,0822.4,5.00,000.00,027.6,026.7,000.0,035.9,029.3,014.3,0000.0,0000.97,0000.12,0000.04
2024-05-26 09:27:00,SystemResetWarning,0822.5,5.00,000.00,027.6,026.7,000.0,035.9,029.3,014.5,0000.0,0000.96,0000.12,0000.04
2024-05-26 09:28:00,SystemResetWarning,0822.6,5.00,000.00,027.5,026.7,000.0,035.9,029.3,014.4,0000.0,0000.96,0000.11,0000.04
2024-05-26 09:29:00,SystemResetWarning,0822.9,5.00,000.00,027.5,026.7,000.0,035.9,029.3,014.5,0000.0,0000.96,0000.12,0000.03
2024-05-26 09:30:00,SystemResetWarning,0822.7,5.00,000.00,027.5,026.7,000.0,035.9,029.3,014.5,0000.0,0000.96,0000.13,0000.03
2024-05-26 09:31:00,SystemResetWarning,0823.1,5.00,000.00,027.5,026.7,000.0,035.9,029.3,014.5,0000.0,0000.95,0000.12,0000.03
2024-05-26 09:32:00,SystemResetWarning,0822.9,5.00,000.00,027.5,026.7,000.0,035.9,029.3,014.5,0000.0,0000.93,0000.11,0000.02
2024-05-26 09:33:00,SystemResetWarning,0822.4,5.00,000.00,027.5,026.7,000.0,035.8,029.3,014.6,0000.0,0000.96,0000.12,0000.03
2024-05-26 09:34:00,SystemResetWarning,0822.5,4.99,000.00,027.5,026.7,000.0,035.8,029.3,014.3,0000.0,0000.89,0000.12,0000.03
2024-05-26 09:35:00,SystemResetWarning,0822.4,5.00,000.00,027.5,026.7,000.0,035.8,029.3,014.3,0000.0,0000.23,0000.10,0000.02
2024-05-26 09:36:00,SystemResetWarning,0822.5,5.00,000.00,027.5,026.7,000.0,035.8,029.3,014.2,0000.0,0000.19,0000.10,0000.02
2024-05-26 09:37:00,SystemResetWarning,0822.4,5.00,000.00,027.5,026.6,000.0,035.8,029.3,014.2,0000.0,0000.17,0000.09,0000.02
2024-05-26 09:38:00,SystemResetWarning,0822.8,5.00,000.00,027.5,026.6,000.0,035.8,029.3,014.3,0000.0,0000.18,0000.10,0000.02
2024-05-26 09:39:00,SystemResetWarning,0822.8,5.00,000.00,027.5,026.6,000.0,035.8,029.2,014.3,0000.0,0000.17,0000.09,0000.02
2024-05-26 09:40:00,SystemResetWarning,0822.8,5.01,000.00,027.5,026.6,000.0,035.8,029.3,014.3,0000.0,0000.17,0000.06,0000.02
2024-05-26 09:41:00,SystemResetWarning,0823.0,5.00,000.00,027.5,026.6,000.0,035.8,029.2,014.4,0000.0,0000.67,0000.06,0000.02
2024-05-26 09:42:00,SystemResetWarning,0822.9,4.99,000.00,027.5,026.6,000.0,035.8,029.2,014.4,0000.0,0000.67,0000.06,0000.02
2024-05-26 09:43:00,SystemResetWarning,0822.5,5.00,000.00,027.5,026.6,000.0,035.8,029.2,014.4,0000.0,0000.67,0000.06,0000.02
2024-05-26 09:44:00,SystemResetWarning,0822.9,5.00,000.00,027.5,026.5,000.0,035.8,029.2,014.4,0000.0,0000.64,0000.05,0000.02
2024-05-26 09:45:00,SystemResetWarning,0822.7,5.00,000.00,027.4,026.5,000.0,035.8,029.2,014.5,0000.0,0000.63,0000.04,0000.02
2024-05-26 09:46:00,SystemResetWarning,0822.6,5.01,000.00,027.4,026.5,000.0,035.8,029.2,014.6,0000.0,0000.62,0000.03,0000.02
2024-05-26 09:47:00,SystemResetWarning,0822.7,5.01,000.00,027.4,026.5,000.0,035.8,029.2,014.4,0000.0,0000.61,0000.02,0000.02
2024-05-26 09:48:00,SystemResetWarning,0822.8,5.00,000.00,027.4,026.5,000.0,035.8,029.2,014.4,0000.0,0000.60,0000.02,0000.01
2024-05-26 09:49:00,SystemResetWarning,0822.8,5.00,000.00,027.4,026.5,000.0,035.8,029.2,014.5,0000.0,0000.59,0000.02,0000.01
2024-05-26 09:50:00,SystemResetWarning,0822.7,5.00,000.00,027.4,026.5,000.0,035.8,029.1,014.5,0000.0,0000.64,0000.04,0000.02
2024-05-26 09:51:00,SystemResetWarning,0822.8,5.01,000.00,027.4,026.5,000.0,035.8,029.1,014.4,0000.0,0000.57,0000.04,0000.02
2024-05-26 09:52:00,SystemResetWarning,0822.7,5.00,000.00,027.4,026.5,000.0,035.7,029.0,014.5,0000.0,0000.18,0000.06,0000.02
2024-05-26 09:53:00,SystemResetWarning,0822.8,5.00,000.00,027.4,026.5,000.0,035.7,029.1,014.6,0000.0,0000.20,0000.06,0000.02
2024-05-26 09:54:00,SystemResetWarning,0822.6,5.00,000.00,027.4,026.5,000.0,035.7,029.1,014.3,0000.0,0000.26,0000.08,0000.02
2024-05-26 09:55:00,SystemResetWarning,0822.6,4.99,000.00,027.4,026.5,000.0,035.7,029.1,014.2,0000.0,0000.30,0000.09,0000.03
2024-05-26 09:56:00,SystemResetWarning,0822.7,5.00,000.00,027.4,026.5,000.0,035.7,029.1,014.2,0000.0,0000.30,0000.09,0000.03
2024-05-26 09:57:00,SystemResetWarning,0822.7,4.99,000.00,027.4,026.5,000.0,035.7,029.1,014.7,0000.0,0000.30,0000.10,0000.03
2024-05-26 09:58:00,SystemResetWarning,0822.6,5.02,000.00,027.4,026.5,000.0,035.7,029.1,015.1,0000.0,0000.31,0000.10,0000.03
2024-05-26 09:59:00,SystemResetWarning,0822.7,5.00,000.00,027.4,026.5,000.0,035.7,029.1,015.3,0000.0,0000.31,0000.10,0000.03
